Change the Weather History Date:

Monday, February 10, 2014

  Actual Average Record
Temperature  
Mean Temperature 17 °F -  
Max Temperature 20 °F 51 °F 74 °F (1976)
Min Temperature 14 °F 28 °F -14 °F (2011)
Degree Days  
Heating Degree Days 48    
Moisture  
Dew Point 17 °F    
Average Humidity 98    
Maximum Humidity 100    
Minimum Humidity 93    
Precipitation  
Precipitation 0.00 in - - ()
Sea Level Pressure  
Sea Level Pressure 30.33 in    
Wind  
Wind Speed 13 mph (North)    
Max Wind Speed 16 mph    
Max Gust Speed 20 mph    
Visibility 9 miles    
Events Snow    
Averages and records for this station are not official NWS values.
T = Trace of Precipitation, MM = Missing Value Source: NWS Daily Summary

Daily Weather History Graph

Daily Weather History Graph

Search for Another Location

Airport or City:

Trip Planner

Search our weather history database for the weather conditions in past years. The results will help you decide how hot, cold, wet, or windy it might be!

Date:

Astronomy

Feb. 10, 2014 Rise Set
Actual Time 7:25 AM CST 6:10 PM CST
Civil Twilight 6:59 AM CST 6:36 PM CST
Nautical Twilight 6:29 AM CST 7:06 PM CST
Astronomical Twilight 5:59 AM CST 7:36 PM CST
Moon 2:43 PM CST (2/10) 4:17 AM CST (2/10)
Length of Visible Light 11h 37m
Length of Day
10h 44m
Waxing Gibbous, 85% of the Moon is Illuminated
Feb 10
Waxing Gibbous
Feb 14
Full
Feb 22
Last Quarter
Mar 1
New
Mar 8
First Quarter

Hourly Weather History & Observations

Time (CST) Temp. Windchill Dew Point Humidity Pressure Visibility Wind Dir Wind Speed Gust Speed Precip Events Conditions
12:15 AM 20.8 °F 8.4 °F 20.8 °F 100% 30.30 in 10.0 mi North 12.7 mph - N/A   Overcast
12:35 AM 20.3 °F 7.2 °F 20.3 °F 100% 30.31 in 7.0 mi North 13.8 mph 18.4 mph N/A   Overcast
12:55 AM 19.8 °F 6.5 °F 19.8 °F 100% 30.30 in 10.0 mi North 13.8 mph - N/A   Overcast
1:15 AM 19.4 °F 6.6 °F 19.4 °F 100% 30.30 in 10.0 mi North 12.7 mph - N/A   Overcast
1:35 AM 19.2 °F 6.4 °F 19.2 °F 100% 30.30 in 10.0 mi North 12.7 mph - N/A   Overcast
1:55 AM 18.9 °F 5.3 °F 18.9 °F 100% 30.30 in 10.0 mi North 13.8 mph - N/A   Overcast
2:15 AM 18.5 °F 4.9 °F 18.5 °F 100% 30.31 in 10.0 mi North 13.8 mph - N/A   Overcast
2:35 AM 18.5 °F 5.5 °F 18.5 °F 100% 30.31 in 7.0 mi North 12.7 mph - N/A   Overcast
2:55 AM 18.0 °F 4.8 °F 18.0 °F 100% 30.31 in 10.0 mi North 12.7 mph - N/A   Overcast
3:15 AM 17.6 °F 4.3 °F 17.6 °F 100% 30.31 in 10.0 mi North 12.7 mph - N/A   Overcast
3:35 AM 17.6 °F 2.7 °F 17.6 °F 100% 30.31 in 10.0 mi North 16.1 mph - N/A   Overcast
3:55 AM 17.4 °F 2.9 °F 17.4 °F 100% 30.32 in 10.0 mi North 15.0 mph - N/A   Overcast
4:15 AM 17.2 °F 2.7 °F 17.2 °F 100% 30.32 in 7.0 mi North 15.0 mph - N/A   Overcast
4:35 AM 16.9 °F 1.7 °F 16.9 °F 100% 30.32 in 7.0 mi North 16.1 mph - N/A   Overcast
4:55 AM 16.5 °F 2.4 °F 16.5 °F 100% 30.31 in 7.0 mi North 13.8 mph - N/A   Overcast
5:15 AM 15.8 °F 0.3 °F 15.8 °F 100% 30.31 in 7.0 mi North 16.1 mph 19.6 mph N/A   Overcast
5:35 AM 15.6 °F 0.1 °F 15.6 °F 100% 30.32 in 7.0 mi North 16.1 mph - N/A   Overcast
5:55 AM 15.3 °F 1.4 °F 15.3 °F 100% 30.33 in 10.0 mi North 12.7 mph - N/A   Overcast
6:15 AM 15.1 °F 1.1 °F 15.1 °F 100% 30.33 in 7.0 mi North 12.7 mph - N/A   Overcast
6:35 AM 14.7 °F 0.7 °F 14.7 °F 100% 30.33 in 10.0 mi North 12.7 mph - N/A   Overcast
6:55 AM 14.9 °F 0.3 °F 14.9 °F 100% 30.33 in 7.0 mi North 13.8 mph - N/A   Overcast
7:15 AM 14.5 °F -0.2 °F 14.5 °F 100% 30.35 in 7.0 mi North 13.8 mph - N/A   Overcast
7:35 AM 14.4 °F 0.2 °F 14.4 °F 100% 30.35 in 7.0 mi North 12.7 mph - N/A   Overcast
7:55 AM 14.0 °F 1.2 °F 14.0 °F 100% 30.35 in 5.0 mi North 10.4 mph - N/A   Overcast
8:15 AM 14.4 °F 0.9 °F 14.4 °F 100% 30.37 in 4.0 mi North 11.5 mph - N/A Snow Light Snow
8:35 AM 14.4 °F 0.2 °F 14.4 °F 100% 30.38 in 3.0 mi North 12.7 mph - N/A Snow Light Snow
8:55 AM 14.5 °F 1.1 °F 14.5 °F 100% 30.38 in 4.0 mi North 11.5 mph - N/A Snow Light Snow
9:15 AM 14.7 °F -1.1 °F 14.7 °F 100% 30.37 in 4.0 mi North 16.1 mph - N/A Snow Light Snow
9:35 AM 14.9 °F 0.3 °F 14.7 °F 99% 30.38 in 5.0 mi North 13.8 mph - N/A Snow Light Snow
9:55 AM 14.7 °F 0.1 °F 14.7 °F 100% 30.38 in 5.0 mi North 13.8 mph - N/A Snow Light Snow
10:15 AM 14.9 °F -0.8 °F 14.4 °F 98% 30.38 in 7.0 mi North 16.1 mph - N/A   Overcast
10:35 AM 15.3 °F 0.2 °F 14.5 °F 97% 30.36 in 10.0 mi North 15.0 mph - N/A   Overcast
10:55 AM 16.0 °F 2.9 °F 15.6 °F 98% 30.36 in 10.0 mi North 11.5 mph - N/A   Overcast
11:15 AM 15.8 °F 2.1 °F 15.1 °F 97% 30.35 in 10.0 mi North 12.7 mph - N/A   Overcast
11:35 AM 16.0 °F 2.3 °F 15.3 °F 97% 30.35 in 10.0 mi North 12.7 mph - N/A   Overcast
11:55 AM 17.1 °F 4.3 °F 16.3 °F 97% 30.34 in 10.0 mi North 11.5 mph - N/A   Overcast
12:15 PM 17.6 °F 5.7 °F 16.7 °F 96% 30.34 in 10.0 mi North 10.4 mph - N/A   Overcast
12:35 PM 18.1 °F 5.0 °F 16.9 °F 95% 30.33 in 10.0 mi North 12.7 mph - N/A   Overcast
12:55 PM 18.5 °F 6.1 °F 17.4 °F 96% 30.32 in 10.0 mi North 11.5 mph - N/A   Overcast
1:15 PM 18.9 °F 7.2 °F 18.1 °F 97% 30.32 in 10.0 mi North 10.4 mph - N/A   Overcast
1:35 PM 19.4 °F 7.9 °F 18.3 °F 96% 30.30 in 10.0 mi North 10.4 mph - N/A   Overcast
1:55 PM 19.8 °F 8.3 °F 18.7 °F 96% 30.30 in 10.0 mi North 10.4 mph - N/A   Overcast
2:15 PM 20.1 °F 7.5 °F 18.5 °F 93% 30.29 in 10.0 mi North 12.7 mph - N/A   Overcast
2:35 PM 20.3 °F 8.3 °F 19.2 °F 96% 30.29 in 10.0 mi North 11.5 mph - N/A   Overcast
2:55 PM 20.3 °F 7.7 °F 19.0 °F 95% 30.28 in 10.0 mi North 12.7 mph - N/A   Overcast
3:15 PM 20.3 °F 7.7 °F 19.2 °F 96% 30.28 in 10.0 mi North 12.7 mph 17.3 mph N/A   Overcast
3:35 PM 20.1 °F 6.9 °F 19.0 °F 96% 30.29 in 10.0 mi North 13.8 mph - N/A   Overcast
3:55 PM 20.3 °F 7.2 °F 19.0 °F 95% 30.28 in 10.0 mi North 13.8 mph - N/A   Overcast
4:15 PM 20.3 °F 6.6 °F 19.2 °F 96% 30.28 in 10.0 mi North 15.0 mph - N/A   Overcast
4:35 PM 20.3 °F 6.6 °F 19.2 °F 96% 30.29 in 10.0 mi North 15.0 mph - N/A   Overcast
4:55 PM 20.3 °F 7.7 °F 19.0 °F 95% 30.29 in 10.0 mi North 12.7 mph - N/A   Overcast
5:15 PM 20.1 °F 6.4 °F 19.0 °F 96% 30.30 in 10.0 mi North 15.0 mph - N/A   Overcast
5:35 PM 19.4 °F 6.6 °F 18.7 °F 97% 30.30 in 10.0 mi NNE 12.7 mph - N/A   Overcast
5:55 PM 19.0 °F 5.0 °F 18.3 °F 97% 30.29 in 10.0 mi North 15.0 mph - N/A   Overcast
6:15 PM 18.9 °F 5.9 °F 18.1 °F 97% 30.31 in 10.0 mi NNE 12.7 mph 18.4 mph N/A   Overcast
6:35 PM 18.7 °F 5.1 °F 18.1 °F 98% 30.31 in 10.0 mi NNE 13.8 mph - N/A   Overcast
6:55 PM 18.1 °F 5.0 °F 17.4 °F 97% 30.32 in 10.0 mi NNE 12.7 mph - N/A   Overcast
7:15 PM 18.1 °F 5.0 °F 17.4 °F 97% 30.33 in 10.0 mi North 12.7 mph - N/A   Overcast
7:35 PM 18.0 °F 4.2 °F 17.1 °F 96% 30.33 in 10.0 mi NNE 13.8 mph - N/A   Overcast
7:55 PM 17.6 °F 4.3 °F 16.5 °F 96% 30.33 in 10.0 mi NNE 12.7 mph - N/A   Overcast
8:15 PM 17.6 °F 4.3 °F 16.3 °F 95% 30.34 in 10.0 mi North 12.7 mph - N/A   Overcast
8:35 PM 17.4 °F 4.7 °F 16.0 °F 94% 30.34 in 10.0 mi North 11.5 mph - N/A   Overcast
8:55 PM 17.1 °F 5.0 °F 15.8 °F 95% 30.35 in 10.0 mi North 10.4 mph - N/A   Mostly Cloudy
9:15 PM 17.1 °F 5.8 °F 15.8 °F 95% 30.36 in 10.0 mi North 9.2 mph - N/A   Mostly Cloudy
9:35 PM 17.1 °F 3.0 °F 16.3 °F 97% 30.36 in 10.0 mi North 13.8 mph - N/A   Overcast
9:55 PM 17.1 °F 3.6 °F 16.7 °F 98% 30.35 in 10.0 mi North 12.7 mph - N/A   Overcast
10:15 PM 17.1 °F 3.6 °F 16.5 °F 98% 30.36 in 10.0 mi North 12.7 mph - N/A   Overcast
10:35 PM 16.7 °F 3.8 °F 16.5 °F 99% 30.37 in 10.0 mi North 11.5 mph - N/A   Overcast
10:55 PM 16.7 °F 3.8 °F 16.5 °F 99% 30.37 in 10.0 mi North 11.5 mph - N/A   Overcast
11:15 PM 16.5 °F 4.3 °F 16.5 °F 100% 30.37 in 10.0 mi North 10.4 mph - N/A Snow Light Snow
11:35 PM 16.5 °F 5.1 °F 16.5 °F 100% 30.38 in 7.0 mi North 9.2 mph - N/A Snow Light Snow
11:55 PM 16.3 °F 4.9 °F 16.3 °F 100% 30.37 in 5.0 mi North 9.2 mph - N/A Snow Light Snow